Tracking 32142 objects as of 12-Nov-2025
HD Live streaming from Space Station
objects crossing your sky now

STARLINK-2500

Track STARLINK-2500 now!
10-day predictions
STARLINK-2500 is classified as:


NORAD ID: 48485
Int'l Code: 2021-040BK
Perigee: 552.4 km
Apogee: 556.3 km
Inclination: 53.1 °
Period: 95.6 minutes
Semi major axis: 6925 km
RCS: Unknown
Launch date: May 9, 2021
Source: United States (US)
Launch site: AIR FORCE EASTERN TEST RANGE (AFETR)
Your satellite tracking list
Your tracking list is empty




NASA's NSSDC Master Catalog

Two Line Element Set (TLE):
1 48485U 21040BK  25316.12762584  .00040397  00000-0  27145-2 0  9992
2 48485  53.0552   9.3763 0002813  89.6275 270.5036 15.06411376248629
Source of the keplerian elements: AFSPC